When you browse on this site, cookies collect data to enhance your experience and personalize the content and advertising you see.
Visit our Privacy Policy to learn more. By continuing to use the site, you agree to this use of cookies and data.
  • In Hungary
  • List of Countries
  • For 7 days
  • Water Temperature
  • Satellite Maps
  • Weather Map
  • News
  • Weather Widgets
  • user-avatar
    Login

    Hourly Weather La Massana

    Today, 20 March, Wednesday

    Time Temperature Precipitation Wind Pressure Humidity
    00:00 -6°C° 0 mm 3 mps 612 mmHg 84%
    01:00 -6°C° 0.1 mm 3 mps 612 mmHg 84%
    02:00 -6°C° 0.1 mm 3 mps 612 mmHg 84%
    03:00 -6°C° 0.1 mm 3 mps 612 mmHg 84%
    04:00 -7°C° 0 mm 3 mps 612 mmHg 85%
    05:00 -6°C° 0 mm 2 mps 612 mmHg 86%
    06:00 -7°C° 0 mm 2 mps 611 mmHg 86%
    07:00 -6°C° 0 mm 3 mps 612 mmHg 75%
    08:00 -4°C° 0 mm 3 mps 613 mmHg 64%
    09:00 -2°C° 0 mm 3 mps 614 mmHg 52%
    10:00 0°C° 0 mm 3 mps 614 mmHg 48%
    11:00 +1°C° 0 mm 3 mps 615 mmHg 43%
    12:00 +4°C° 0 mm 2 mps 616 mmHg 37%
    13:00 +4°C° 0 mm 2 mps 615 mmHg 39%
    14:00 +3°C° 0 mm 3 mps 615 mmHg 40%
    15:00 +3°C° 0 mm 3 mps 615 mmHg 42%
    16:00 +1°C° 0 mm 2 mps 614 mmHg 52%
    17:00 -2°C° 0 mm 2 mps 613 mmHg 62%
    18:00 -4°C° 0 mm 2 mps 612 mmHg 73%
    19:00 -5°C° 0 mm 2 mps 612 mmHg 76%
    20:00 -5°C° 0 mm 2 mps 612 mmHg 79%
    21:00 -4°C° 0 mm 1 mps 612 mmHg 82%
    22:00 -4°C° 0 mm 1 mps 612 mmHg 79%
    23:00 -4°C° 0 mm 1 mps 612 mmHg 76%

    Tomorrow, 21 March, Thursday

    Time Temperature Precipitation Wind Pressure Humidity
    00:00 -4°C° 0 mm 1 mps 612 mmHg 73%
    01:00 -4°C° 0 mm 1 mps 612 mmHg 72%
    02:00 -4°C° 0 mm 1 mps 612 mmHg 71%
    03:00 -4°C° 0 mm 1 mps 612 mmHg 70%
    04:00 -4°C° 0 mm 1 mps 612 mmHg 70%
    05:00 -4°C° 0 mm 1 mps 612 mmHg 69%
    06:00 -4°C° 0 mm 1 mps 612 mmHg 69%
    07:00 -2°C° 0 mm 1 mps 614 mmHg 59%
    08:00 +1°C° 0 mm 1 mps 615 mmHg 49%
    09:00 +4°C° 0 mm 1 mps 616 mmHg 39%
    10:00 +5°C° 0 mm 1 mps 617 mmHg 37%
    11:00 +7°C° 0 mm 1 mps 617 mmHg 35%
    12:00 +8°C° 0 mm 1 mps 618 mmHg 33%
    13:00 +8°C° 0 mm 1 mps 617 mmHg 34%
    14:00 +8°C° 0 mm 1 mps 617 mmHg 36%
    15:00 +8°C° 0 mm 1 mps 616 mmHg 37%
    16:00 +5°C° 0 mm 1 mps 615 mmHg 44%
    17:00 +3°C° 0 mm 1 mps 614 mmHg 51%
    18:00 0°C° 0 mm 0 mps 613 mmHg 58%
    19:00 0°C° 0 mm 1 mps 613 mmHg 58%
    20:00 -1°C° 0 mm 1 mps 613 mmHg 58%
    21:00 -1°C° 0 mm 1 mps 613 mmHg 58%
    22:00 -1°C° 0 mm 1 mps 613 mmHg 55%
    23:00 -1°C° 0 mm 1 mps 613 mmHg 52%

    Day after tomorrow, 22 March, Friday

    Time Temperature Precipitation Wind Pressure Humidity
    00:00 -1°C° 0 mm 1 mps 614 mmHg 49%
    01:00 -1°C° 0 mm 1 mps 614 mmHg 47%
    02:00 -1°C° 0 mm 1 mps 613 mmHg 46%
    03:00 -1°C° 0 mm 1 mps 613 mmHg 44%
    04:00 -1°C° 0 mm 1 mps 613 mmHg 44%
    05:00 -1°C° 0 mm 1 mps 613 mmHg 44%
    06:00 -1°C° 0 mm 1 mps 613 mmHg 45%
    07:00 +2°C° 0 mm 1 mps 615 mmHg 42%
    08:00 +4°C° 0 mm 0 mps 616 mmHg 39%
    09:00 +7°C° 0 mm 0 mps 618 mmHg 36%
    10:00 +8°C° 0 mm 0 mps 618 mmHg 36%
    11:00 +10°C° 0 mm 1 mps 618 mmHg 36%
    12:00 +11°C° 0 mm 1 mps 618 mmHg 36%
    13:00 +11°C° 0 mm 1 mps 618 mmHg 38%
    14:00 +10°C° 0 mm 1 mps 617 mmHg 41%
    15:00 +10°C° 0 mm 1 mps 617 mmHg 43%
    16:00 +8°C° 0 mm 1 mps 616 mmHg 50%
    17:00 +6°C° 0 mm 1 mps 615 mmHg 57%
    18:00 +3°C° 0 mm 0 mps 614 mmHg 64%
    19:00 +3°C° 0 mm 1 mps 614 mmHg 67%
    20:00 +3°C° 0 mm 1 mps 614 mmHg 69%
    21:00 +2°C° 0 mm 1 mps 614 mmHg 72%
    22:00 +1°C° 0 mm 1 mps 614 mmHg 71%
    23:00 +1°C° 0 mm 1 mps 614 mmHg 71%

    23 March, Saturday

    Time Temperature Precipitation Wind Pressure Humidity
    00:00 +1°C° 0 mm 1 mps 614 mmHg 70%
    01:00 +1°C° 0 mm 1 mps 613 mmHg 69%
    02:00 +1°C° 0 mm 1 mps 613 mmHg 69%
    03:00 +1°C° 0 mm 1 mps 613 mmHg 68%
    04:00 +1°C° 0 mm 1 mps 613 mmHg 68%
    05:00 +1°C° 0 mm 1 mps 613 mmHg 67%
    06:00 +1°C° 0 mm 1 mps 613 mmHg 67%
    07:00 +4°C° 0 mm 1 mps 614 mmHg 58%
    08:00 +5°C° 0 mm 0 mps 615 mmHg 50%
    09:00 +8°C° 0 mm 0 mps 617 mmHg 41%
    10:00 +9°C° 0 mm 0 mps 617 mmHg 39%
    11:00 +11°C° 0 mm 1 mps 617 mmHg 36%
    12:00 +13°C° 0 mm 1 mps 617 mmHg 34%
    13:00 +12°C° 0 mm 1 mps 617 mmHg 35%
    14:00 +12°C° 0 mm 1 mps 616 mmHg 35%
    15:00 +12°C° 0 mm 1 mps 616 mmHg 36%
    16:00 +10°C° 0 mm 1 mps 615 mmHg 44%
    17:00 +8°C° 0 mm 1 mps 614 mmHg 51%
    18:00 +5°C° 0 mm 0 mps 613 mmHg 58%
    19:00 +4°C° 0 mm 0 mps 613 mmHg 61%
    20:00 +4°C° 0 mm 1 mps 613 mmHg 64%
    21:00 +3°C° 0 mm 1 mps 612 mmHg 68%
    22:00 +2°C° 0 mm 1 mps 612 mmHg 67%
    23:00 +2°C° 0 mm 1 mps 612 mmHg 66%

    24 March, Sunday

    Time Temperature Precipitation Wind Pressure Humidity
    00:00 +2°C° 0 mm 1 mps 612 mmHg 66%
    01:00 +2°C° 0 mm 1 mps 612 mmHg 66%
    02:00 +2°C° 0 mm 1 mps 611 mmHg 67%
    03:00 +2°C° 0 mm 1 mps 611 mmHg 67%
    04:00 +2°C° 0 mm 1 mps 611 mmHg 67%
    05:00 +1°C° 0 mm 0 mps 611 mmHg 68%
    06:00 +1°C° 0 mm 0 mps 611 mmHg 68%
    07:00 +4°C° 0 mm 1 mps 612 mmHg 62%
    08:00 +6°C° 0 mm 1 mps 614 mmHg 55%
    09:00 +8°C° 0 mm 1 mps 615 mmHg 48%
    10:00 +9°C° 0 mm 1 mps 615 mmHg 46%
    11:00 +10°C° 0 mm 1 mps 615 mmHg 44%
    12:00 +11°C° 0 mm 1 mps 615 mmHg 42%
    13:00 +10°C° 0.1 mm 1 mps 615 mmHg 45%
    14:00 +9°C° 0.1 mm 1 mps 614 mmHg 48%
    15:00 +8°C° 0.1 mm 1 mps 613 mmHg 50%
    16:00 +6°C° 0.1 mm 0 mps 613 mmHg 55%
    17:00 +5°C° 0.1 mm 0 mps 612 mmHg 59%
    18:00 +4°C° 0.1 mm 0 mps 612 mmHg 63%
    19:00 +3°C° 0 mm 0 mps 612 mmHg 67%
    20:00 +2°C° 0 mm 0 mps 612 mmHg 70%
    21:00 +1°C° 0 mm 0 mps 611 mmHg 74%
    22:00 +1°C° 0 mm 0 mps 611 mmHg 74%
    23:00 +2°C° 0 mm 1 mps 611 mmHg 74%

    25 March, Monday

    Time Temperature Precipitation Wind Pressure Humidity
    00:00 +1°C° 0 mm 1 mps 611 mmHg 74%
    01:00 +1°C° 0 mm 1 mps 611 mmHg 72%
    02:00 +1°C° 0 mm 1 mps 610 mmHg 69%
    03:00 +1°C° 0 mm 1 mps 610 mmHg 67%
    04:00 +1°C° 0 mm 1 mps 610 mmHg 61%
    05:00 0°C° 0 mm 1 mps 610 mmHg 56%
    06:00 0°C° 0 mm 1 mps 610 mmHg 50%
    07:00 +3°C° 0 mm 1 mps 611 mmHg 43%
    08:00 +6°C° 0 mm 1 mps 613 mmHg 37%
    09:00 +9°C° 0 mm 1 mps 614 mmHg 30%
    10:00 +10°C° 0 mm 1 mps 614 mmHg 30%
    11:00 +11°C° 0 mm 1 mps 614 mmHg 30%
    12:00 +12°C° 0 mm 1 mps 615 mmHg 29%
    13:00 +12°C° 0 mm 1 mps 614 mmHg 32%
    14:00 +11°C° 0 mm 1 mps 614 mmHg 35%
    15:00 +11°C° 0 mm 1 mps 613 mmHg 37%
    16:00 +9°C° 0 mm 1 mps 612 mmHg 48%
    17:00 +8°C° 0 mm 1 mps 612 mmHg 58%
    18:00 +6°C° 0 mm 1 mps 611 mmHg 68%
    19:00 +5°C° 0 mm 1 mps 611 mmHg 75%
    20:00 +4°C° 0 mm 1 mps 611 mmHg 81%
    21:00 +3°C° 0 mm 1 mps 610 mmHg 88%
    22:00 +2°C° 0 mm 1 mps 610 mmHg 89%
    23:00 +2°C° 0 mm 1 mps 610 mmHg 90%
    Show more